DW1970 Weather Reports


Display with metric or nautical units.
time (UTC)temp
F
wind
direction
speed
MPH
gust
MPH
rain 1hr
in
rain 24hr
in
rain mn
in
humidity
%
barometer
mb
20260831134531 53 12 0.0 0.0 0.00 0.00 0.00 96 1012.4
20260831133034 53 175 0.0 0.0 0.00 0.00 0.00 96 1012.2
20260831131530 53 151 0.0 10.0 0.00 0.00 0.00 96 1011.7
20260831130028 53 114 0.0 6.0 0.00 0.00 0.00 96 1011.8
20260831124527 53 168 0.0 2.0 0.00 0.00 0.00 96 1011.8
20260831123027 53 166 0.0 2.0 0.00 0.00 0.00 96 1011.9
20260831121527 53 144 0.0 0.0 0.00 0.00 0.00 96 1012.1
20260831120036 53 189 0.0 4.0 0.00 0.00 0.00 96 1012.2
20260831114526 53 159 0.0 2.0 0.00 0.00 0.00 96 1012.3
20260831113025 53 161 0.0 0.0 0.00 0.00 0.00 96 1012.4
20260831111523 52 121 0.0 0.0 0.00 0.00 0.00 96 1012.3
20260831110032 52 120 0.0 0.0 0.00 0.00 0.00 95 1012.3
20260831104530 52 125 0.0 0.0 0.00 0.00 0.00 95 1012.3
20260831103021 52 136 0.0 0.0 0.00 0.00 0.00 95 1012.3
20260831101526 52 139 0.0 0.0 0.00 0.00 0.00 95 1012.2
20260831100021 52 146 0.0 0.0 0.00 0.00 0.00 95 1011.9
20260831094517 52 131 0.0 4.0 0.00 0.00 0.00 95 1011.7
20260831093019 52 111 0.0 2.0 0.00 0.00 0.00 94 1011.7
20260831091534 53 130 0.0 2.0 0.00 0.00 0.00 95 1011.7
20260831090014 53 156 1.0 7.0 0.00 0.00 0.00 95 1011.4
20260831084512 53 160 1.0 9.0 0.00 0.00 0.00 94 1011.5
20260831083010 53 152 1.0 8.0 0.00 0.00 0.00 94 1011.6
20260831081527 53 163 0.0 7.0 0.00 0.00 0.00 93 1011.7
20260831080014 53 160 0.0 6.0 0.00 0.00 0.00 92 1011.8
20260831074505 54 113 0.0 2.0 0.00 0.00 0.00 91 1011.8
20260831073012 54 150 0.0 8.0 0.00 0.00 0.00 91 1011.8
20260831071502 54 139 0.0 5.0 0.00 0.00 0.00 92 1011.5
20260831070100 54 122 0.0 0.0 0.00 0.00 0.00 91 1011.8
20260831064603 54 124 0.0 0.0 0.00 0.00 0.00 91 1011.7
20260831063101 55 124 0.0 0.0 0.00 0.00 0.00 91 1011.6
20260831061559 55 100 0.0 0.0 0.00 0.00 0.00 90 1011.6
20260831060100 55 99 0.0 0.0 0.00 0.00 0.00 91 1011.5
20260831054558 55 97 0.0 0.0 0.00 0.00 0.00 92 1011.3
20260831053058 55 108 0.0 0.0 0.00 0.00 0.00 94 1011.3
20260831051556 54 92 0.0 0.0 0.00 0.00 0.00 94 1011.4
20260831050055 53 126 0.0 0.0 0.00 0.00 0.00 94 1011.6
20260831044601 53 206 0.0 0.0 0.00 0.00 0.00 93 1011.7
20260831043054 53 200 0.0 2.0 0.00 0.00 0.00 93 1011.7
20260831041607 53 343 0.0 1.0 0.00 0.00 0.00 93 1011.5
20260831040054 53 343 0.0 0.0 0.00 0.00 0.00 92 1011.7
20260831034558 54 344 0.0 0.0 0.00 0.00 0.00 91 1011.6
20260831033052 54 344 0.0 0.0 0.00 0.00 0.00 90 1011.8
20260831031551 54 344 0.0 0.0 0.00 0.00 0.00 90 1011.7
20260831030058 55 344 0.0 1.0 0.00 0.00 0.00 89 1011.9
20260831024551 56 344 0.0 0.0 0.00 0.00 0.00 88 1011.7
20260831023049 56 339 0.0 2.0 0.00 0.00 0.00 87 1011.9
20260831021550 57 353 0.0 2.0 0.00 0.00 0.00 86 1011.9
20260831020046 58 341 0.0 5.0 0.00 0.00 0.00 86 1012.2
20260831014546 58 336 0.0 6.0 0.00 0.00 0.00 85 1012.3
20260831013053 59 356 0.0 9.0 0.00 0.00 0.00 84 1012.4
20260831011547 60 354 0.0 2.0 0.00 0.00 0.00 83 1012.5
20260831010101 60 345 0.0 7.0 0.00 0.00 0.00 83 1012.6
20260831004541 61 323 0.0 9.0 0.00 0.00 0.00 82 1012.7
20260831003045 61 334 0.0 4.0 0.00 0.00 0.00 82 1012.7
20260831001541 62 1 1.0 10.0 0.00 0.00 0.00 81 1012.7
20260831000039 62 329 0.0 5.0 0.00 0.00 0.00 79 1012.7
20260830234538 62 344 0.0 9.0 0.00 0.00 0.00 79 1012.8
20260830233038 63 355 0.0 9.0 0.00 0.00 0.00 78 1012.8
20260830231539 64 356 0.0 3.0 0.00 0.00 0.00 76 1012.9
20260830230036 63 7 1.0 6.0 0.00 0.00 0.00 76 1013.0
20260830224538 63 325 0.0 5.0 0.00 0.00 0.00 78 1013.1
20260830223036 63 338 0.0 4.0 0.00 0.00 0.00 76 1013.2
20260830221534 64 340 0.0 0.0 0.00 0.00 0.00 74 1013.3
20260830220038 64 341 0.0 1.0 0.00 0.00 0.00 74 1013.4
20260830214533 64 4 0.0 5.0 0.00 0.00 0.00 75 1013.7
20260830213033 64 320 0.0 0.0 0.00 0.00 0.00 75 1014.0
20260830211532 64 313 0.0 0.0 0.00 0.00 0.00 76 1014.1
20260830210033 64 330 0.0 0.0 0.00 0.00 0.00 75 1014.2
20260830204535 64 341 0.0 0.0 0.00 0.00 0.00 75 1014.2
20260830203030 64 309 0.0 0.0 0.00 0.00 0.00 73 1014.3
20260830201530 64 312 0.0 0.0 0.00 0.00 0.00 73 1014.4
20260830200028 64 310 0.0 0.0 0.00 0.00 0.00 74 1014.5
20260830194527 64 294 0.0 2.0 0.00 0.00 0.00 76 1014.6
20260830193024 63 289 0.0 0.0 0.00 0.00 0.00 79 1014.7
20260830191519 62 305 0.0 5.0 0.00 0.00 0.00 80 1014.6
20260830190018 61 214 0.0 0.0 0.00 0.00 0.00 80 1014.8
20260830184516 61 319 0.0 6.0 0.00 0.00 0.00 81 1014.8
20260830183014 60 277 0.0 4.0 0.00 0.00 0.00 82 1014.7
20260830181511 60 241 0.0 0.0 0.00 0.00 0.00 83 1014.7
20260830180011 60 237 0.0 0.0 0.00 0.00 0.00 84 1014.6
20260830174509 59 245 0.0 0.0 0.00 0.00 0.00 85 1014.6
20260830173005 58 224 0.0 0.0 0.00 0.00 0.00 88 1014.6
20260830171508 58 277 0.0 3.0 0.00 0.00 0.00 87 1014.5
20260830170002 57 322 0.0 0.0 0.00 0.00 0.00 86 1014.5
20260830164502 57 324 0.0 0.0 0.00 0.00 0.00 87 1014.4
20260830163001 57 337 0.0 0.0 0.00 0.00 0.00 87 1014.4
20260830161612 56 335 0.0 0.0 0.00 0.00 0.00 87 1014.4
20260830160059 56 329 0.0 0.0 0.00 0.00 0.00 86 1014.5
20260830154559 57 287 0.0 0.0 0.00 0.00 0.00 86 1014.4
20260830153103 57 143 0.0 0.0 0.00 0.00 0.00 85 1014.3
20260830151559 56 139 0.0 0.0 0.00 0.00 0.00 85 1014.3
20260830150053 56 139 0.0 0.0 0.00 0.00 0.00 84 1014.1
20260830144551 56 139 0.0 0.0 0.00 0.00 0.00 86 1014.0
20260830143048 54 145 0.0 0.0 0.00 0.00 0.00 87 1013.8
20260830141547 55 145 0.0 0.0 0.00 0.00 0.00 86 1013.5
20260830140107 54 169 0.0 0.0 0.00 0.00 0.00 86 1013.4